Regional Weather Roundup
Issued by NWS

Home | Current Version | Previous Version | Graphics & Text | Print | Product List | Glossary On
Versions: 1 2 3 4 5 6 7 8 9 10 11 12 13 14 15 16 17 18 19 20 21 22 23 24 25 26 27 28 29 30 31 32 33 34 35 36 37 38 39 40 41 42 43 44 45 46 47 48 49 50
000
ASUS45 KSLC 240110
RWRUT

UTAH REGIONAL WEATHER ROUNDUP
NATIONAL WEATHER SERVICE SALT LAKE CITY UT
700 PM MDT SAT MAY 23 2015

UTZ001>011-023>025-240200-

NORTHERN UTAH

CITY           SKY/WX    TMP DP  RH WIND       PRES   REMARKS
BRIGHAM CITY   PTSUNNY   60  41  48 W5        29.93S
HILL AFB       PTSUNNY   58  43  56 NW5       29.92F
LOGAN          MOSUNNY   58  44  60 S12       29.93R
OGDEN          MOSUNNY   59  43  55 N6        29.91F
PROVO AIRPORT  PTSUNNY   57  43  58 NW8       29.91F
SALT LAKE CITY PTSUNNY   59  45  59 N12       29.91F
VERNAL         PTSUNNY   60  33  36 SW9       29.91S
WENDOVER       CLOUDY    55  46  71 E3        29.93F
HEBER CITY     CLOUDY    54  37  54 S12       29.92R
WEST JORDAN    MOSUNNY   57  46  67 N13       29.93S

$$

UTZ012>022-026-027-240200-

SOUTHERN/CENTRAL UTAH

CITY           SKY/WX    TMP DP  RH WIND       PRES   REMARKS
BLANDING       CLOUDY    45  42  88 CALM      30.06S
BRYCE CANYON   LGT RAIN  41  37  86 W10       30.01F
CEDAR CITY     PTSUNNY   50  45  83 SW9       29.96F
DELTA          PTSUNNY   56  42  59 CALM      29.93S
HANKSVILLE     CLOUDY    55  43  62 SE9       29.93S
MILFORD        CLOUDY    54  46  74 SW13      29.93S
MOAB/CYNLANDS  CLOUDY    59  36  42 S7        29.89F
PRICE          MOSUNNY   53  35  50 VRB6      29.94F
ST GEORGE      MOCLDY    66  45  45 NE18      29.90R
KANAB          CLOUDY    52  52 100 SW5       30.00

$$

REGIONAL REPORTS     COLORADO/ARIZONA

CITY           SKY/WX    TMP DP  RH WIND       PRES   REMARKS
CRAIG, CO      CLOUDY    51  34  52 S12       29.96F
GRAND JUNCTION CLOUDY    52  43  71 E7        29.96S
RIFLE          PTSUNNY   57  35  43 W14G20    29.94R
MONTROSE       LGT RAIN  48  39  71 N5        30.01R
CORTEZ         CLOUDY    46  42  86 E6        30.03F
PAGE, AZ       CLOUDY    60  43  53 N6        29.94S
GRAND CANYON   CLOUDY    48  44  86 SE5       30.03F
KINGMAN        MOSUNNY   71  36  27 SW17      29.92F
FLAGSTAFF      CLOUDY    51  33  50 SW13      30.06F

$$

REGIONAL REPORTS    NEVADA/IDAHO/WYOMING

CITY           SKY/WX    TMP DP  RH WIND       PRES   REMARKS
LAS VEGAS, NV  PTSUNNY   80  36  20 SW12      29.77F
ELY            PTSUNNY   52  47  83 W5        29.97F
ELKO           PTSUNNY   54  47  77 SW10      29.97S
POCATELLO, ID  PTSUNNY   53  51  93 NW5       29.95S
BURLEY         CLOUDY    53  49  86 S5        29.91F
EVANSTON, WY   MOSUNNY   47  38  71 N5        29.98R
ROCK SPRINGS   CLOUDY    54  33  45 N6        29.94S
KEMMERER       PTSUNNY   46  39  76 NW8       29.99R

$$



USA.gov is the U.S. government's official web portal to all federal, state and local government web resources and services.